Stations météo

réclame
Mon MeteoGroup
Amberieu, France (7482): Température de l'air & dewpoint: 01.08.2020 23:00:00 - 07.08.2020 23:00:00 (CEST)Amberieu, France (7482): Température de l'air 5cm: 01.08.2020 23:00:00 - 07.08.2020 23:00:00 (CEST)Amberieu, France (7482): Température de l'air -20cm & Température de l'air -100cm: 01.08.2020 23:00:00 - 07.08.2020 23:00:00 (CEST)Amberieu, France (7482): Vitesse du vent & gusts: 01.08.2020 23:00:00 - 07.08.2020 23:00:00 (CEST)Amberieu, France (7482): Direction du vent: 01.08.2020 23:00:00 - 07.08.2020 23:00:00 (CEST)Amberieu, France (7482): reduced air pressure: 01.08.2020 23:00:00 - 07.08.2020 23:00:00 (CEST)Amberieu, France (7482): visibility: 01.08.2020 23:00:00 - 07.08.2020 23:00:00 (CEST)Amberieu, France (7482): Ensoleillement: 01.08.2020 23:00:00 - 07.08.2020 23:00:00 (CEST)Amberieu, France (7482): Quantités de précipitations: 01.08.2020 23:00:00 - 07.08.2020 23:00:00 (CEST)
Date & Time tt [°C] td [°C] tt 5cm [°C] tt -20cm [°C] tt -100cm [°C] ff [km/h] ff [knt] fx [km/h] fx [knt] dd ppp [hPa] vv [km] sd [min] rr [mm]
07.08.2020 23:00:00 21,6 11,0 18,2 24,4 21,5 3 1 8 4 E 1017,2 20 0 0,0
07.08.2020 22:00:00 23,8 10,1 19,3 24,2 21,5 3 2 11 6 SSE 1016,7 20 0 0,0
07.08.2020 21:00:00 28,0 9,3 27,3 24,2 21,5 8 4 16 8 NNE 1015,6 20 35 0,0
07.08.2020 20:00:00 32,8 8,3 34,5 24,1 21,5 7 4 14 8 N 1014,7 20 60 0,0
07.08.2020 19:00:00 34,2 7,3 41,0 24,0 21,5 6 4 14 7 N 1014,8 20 60 0,0
07.08.2020 18:00:00 34,9 9,3 38,8 24,0 21,5 4 2 13 7 SW 1015,1 20 60 0,0
07.08.2020 17:00:00 34,5 8,3 38,6 23,9 21,5 3 2 13 7 S 1015,5 20 60 0,0
07.08.2020 16:00:00 34,1 8,7 43,6 24,1 21,5 6 3 16 9 W 1016,0 20 60 0,0
07.08.2020 15:00:00 32,9 9,7 43,3 24,1 21,5 8 4 20 11 WSW 1016,5 20 60 0,0
07.08.2020 14:00:00 32,1 11,3 41,4 24,1 21,5 8 4 18 10 WNW 1016,7 20 60 0,0
07.08.2020 13:00:00 31,0 12,8 39,7 24,0 21,5 8 4 16 8 W 1017,2 20 60 0,0
07.08.2020 12:00:00 29,3 12,7 36,5 24,1 21,5 4 2 13 7 W 1017,9 20 60 0,0
07.08.2020 11:00:00 26,7 12,4 33,5 24,2 21,5 6 3 10 5 WSW 1018,5 20 60 0,0
07.08.2020 10:00:00 23,6 12,3 29,9 24,2 21,5 5 3 8 4 WSW 1018,9 20 60 0,0
07.08.2020 09:00:00 22,0 11,7 24,5 24,0 21,5 3 2 6 3 E 1019,0 20 60 0,0
07.08.2020 08:00:00 17,5 12,4 16,2 24,1 21,5 4 2 8 4 NE 1019,2 20 60 0,0
07.08.2020 07:00:00 14,6 11,7 14,2 24,1 21,5 5 3 9 5 NE 1019,3 20 7 0,0
07.08.2020 06:00:00 16,7 11,6 14,1 24,0 21,5 7 4 13 7 ESE 1018,6 20 0 0,0
07.08.2020 05:00:00 14,9 11,3 13,6 24,3 21,5 4 2 9 5 ENE 1018,6 20 0 0,0
07.08.2020 04:00:00 15,9 11,7 13,1 24,1 21,5 6 3 8 5 ENE 1018,4 20 0 0,0
07.08.2020 03:00:00 17,1 10,9 14,7 24,1 21,5 3 1 9 5 SSW 1018,2 20 0 0,0
07.08.2020 02:00:00 17,2 10,8 16,1 24,2 21,5 6 4 14 8 NE 1018,1 20 0 0,0
07.08.2020 01:00:00 19,0 11,1 17,6 23,9 21,5 5 3 9 5 N 1017,9 20 0 0,0
07.08.2020 00:00:00 20,0 10,4 17,3 23,9 21,5 2 1 9 5 E 1017,6 20 0 0,0
06.08.2020 23:00:00 20,2 10,9 17,6 24,0 21,5 6 4 10 5 E 1017,4 20 0 0,0
06.08.2020 22:00:00 22,7 9,5 19,3 23,8 21,5 4 2 8 5 NE 1016,8 20 0 0,0
06.08.2020 21:00:00 25,9 8,4 25,0 23,8 21,5 7 4 21 12 N 1016,0 20 36 0,0
06.08.2020 20:00:00 29,4 9,0 31,0 23,6 21,5 16 9 26 14 N 1015,5 20 60 0,0
06.08.2020 19:00:00 30,7 11,1 36,6 23,6 21,5 14 8 24 13 N 1015,1 20 60 0,0
06.08.2020 18:00:00 31,0 10,9 38,4 23,7 21,5 13 7 22 12 NNW 1015,0 20 60 0,0
06.08.2020 17:00:00 31,1 8,7 35,8 23,6 21,5 12 7 26 14 N 1015,1 20 60 0,0
06.08.2020 16:00:00 30,5 8,2 41,1 23,5 21,5 8 4 25 14 N 1015,5 20 60 0,0
06.08.2020 15:00:00 30,2 8,0 40,4 23,4 21,5 10 6 23 12 WNW 1016,0 20 60 0,0
06.08.2020 14:00:00 28,9 8,0 38,8 23,6 21,6 10 5 22 12 N 1016,5 20 60 0,0
06.08.2020 13:00:00 27,6 9,9 36,1 23,6 21,6 8 5 16 9 W 1017,1 20 60 0,0
06.08.2020 12:00:00 24,9 9,6 33,3 23,7 21,6 4 2 12 7 S 1017,6 20 60 0,0
06.08.2020 11:00:00 23,3 9,3 30,7 23,6 21,5 6 3 12 6 W 1018,0 20 60 0,0
06.08.2020 10:00:00 21,4 9,0 27,4 23,6 21,6 4 2 10 5 W 1018,2 20 60 0,0
06.08.2020 09:00:00 19,3 10,0 22,3 23,8 21,6 3 1 8 4 ENE 1018,3 20 60 0,0
06.08.2020 08:00:00 15,2 9,5 14,7 23,8 21,6 4 2 12 7 N 1018,3 20 60 0,0
06.08.2020 07:00:00 13,1 9,2 11,6 23,8 21,6 5 3 12 6 NE 1018,1 20 9 0,0
06.08.2020 06:00:00 13,0 8,9 12,1 24,0 21,6 5 3 15 8 ENE 1017,7 20 0 0,0
06.08.2020 05:00:00 12,9 9,2 11,9 23,7 21,6 5 3 9 5 NE 1017,7 20 0 0,0
06.08.2020 04:00:00 14,1 8,5 12,4 23,8 21,6 3 2 12 6 NE 1017,5 20 0 0,0
06.08.2020 03:00:00 16,7 8,9 11,9 23,9 21,6 7 4 14 8 SE 1017,1 20 0 0,0
06.08.2020 02:00:00 15,3 9,2 14,6 23,9 21,6 6 4 14 8 ENE 1017,0 20 0 0,0
06.08.2020 01:00:00 16,9 9,6 12,6 23,6 21,6 4 2 11 6 SE 1016,5 20 0 0,0
06.08.2020 00:00:00 16,3 8,5 13,2 23,8 21,6 0 0 8 5 N 1016,4 20 0 0,0
05.08.2020 23:00:00 18,8 8,7 14,7 23,6 21,6 3 2 5 3 ESE 1015,9 20 0 0,0
05.08.2020 22:00:00 20,4 8,7 16,7 23,6 21,6 4 2 13 7 E 1015,3 20 0 0,0
05.08.2020 21:00:00 23,6 8,1 23,3 23,4 21,6 10 5 22 12 N 1014,4 20 38 0,0
05.08.2020 20:00:00 26,6 7,6 29,1 23,5 21,6 14 8 24 13 N 1013,7 20 60 0,0
05.08.2020 19:00:00 27,7 7,5 33,8 23,4 21,6 18 10 30 16 NNW 1013,4 20 60 0,0
05.08.2020 18:00:00 28,6 7,2 36,2 23,4 21,6 12 6 27 15 NNW 1013,2 20 60 0,0
05.08.2020 17:00:00 28,6 7,8 33,6 23,4 21,6 11 6 27 15 NW 1013,3 20 60 0,0
05.08.2020 16:00:00 27,9 8,2 37,2 23,5 21,7 9 5 25 13 NNE 1013,6 20 60 0,0
05.08.2020 15:00:00 27,4 8,3 37,2 23,5 21,6 9 5 24 13 NNW 1013,8 20 60 0,0
05.08.2020 14:00:00 26,3 7,8 35,4 23,4 21,6 14 7 29 16 N 1014,4 20 60 0,0
05.08.2020 13:00:00 24,7 8,2 33,2 23,4 21,6 6 4 22 12 WSW 1015,0 20 60 0,0
05.08.2020 12:00:00 22,1 8,2 30,5 23,4 21,7 6 3 14 8 NNE 1015,8 20 60 0,0
05.08.2020 11:00:00 19,7 8,7 28,2 23,5 21,6 6 3 12 7 WSW 1016,3 20 60 0,0
05.08.2020 10:00:00 18,3 8,0 25,1 23,7 21,7 3 1 16 9 WNW 1016,6 20 60 0,0
05.08.2020 09:00:00 15,7 8,2 19,1 23,9 21,7 2 1 8 5 N 1016,6 20 60 0,0
05.08.2020 08:00:00 12,7 8,2 11,4 23,8 21,7 4 2 8 4 ENE 1017,1 20 60 0,0
05.08.2020 07:00:00 9,8 7,7 5,6 23,7 21,7 4 2 9 5 NE 1017,2 20 10 0,0
05.08.2020 06:00:00 9,1 6,7 5,9 23,8 21,7 4 2 11 6 NE 1016,9 20 0 0,0
05.08.2020 05:00:00 11,0 7,7 8,9 24,0 21,7 7 4 11 6 ENE 1016,7 20 0 0,0
05.08.2020 04:00:00 11,5 7,8 10,1 23,9 21,7 6 4 15 8 NE 1016,8 20 0 0,0
05.08.2020 03:00:00 11,6 7,9 10,4 23,7 21,7 6 3 12 6 NE 1017,0 20 0 0,0
05.08.2020 02:00:00 12,4 8,5 10,8 24,0 21,7 9 5 15 8 NNE 1016,9 20 0 0,0
05.08.2020 01:00:00 13,2 7,8 12,4 23,8 21,7 9 5 13 7 NNE 1016,8 20 0 0,0
05.08.2020 00:00:00 13,7 8,1 10,9 23,9 21,7 10 5 12 7 NNE 1016,7 20 0 0,0
04.08.2020 23:00:00 15,3 7,6 13,9 23,8 21,7 5 3 14 8 NE 1016,7 20 0 0,0
04.08.2020 22:00:00 18,0 8,3 17,2 23,8 21,7 10 5 16 9 NNE 1016,4 20 0 0,0
04.08.2020 21:00:00 20,0 8,0 20,0 23,6 21,7 9 5 26 14 NNE 1015,8 20 39 0,0
04.08.2020 20:00:00 22,1 7,9 24,4 23,9 21,7 17 9 37 20 NNE 1015,3 20 55 0,0
04.08.2020 19:00:00 22,8 8,1 23,9 23,6 21,7 18 10 33 18 N 1015,1 20 31 0,0
04.08.2020 18:00:00 21,8 8,3 24,1 23,9 21,7 20 11 37 20 NNE 1015,5 20 28 0,0
04.08.2020 17:00:00 23,0 8,7 27,6 23,9 21,7 22 12 42 23 N 1015,2 20 43 0,0
04.08.2020 16:00:00 23,4 8,7 29,3 23,7 21,7 21 12 43 23 NNW 1015,5 20 56 0,0
04.08.2020 15:00:00 23,0 9,4 25,7 23,7 21,7 22 12 42 23 N 1016,0 20 35 0,0
04.08.2020 14:00:00 21,0 8,9 26,3 23,9 21,7 26 14 43 23 NNW 1016,3 20 53 0,0
04.08.2020 13:00:00 21,0 10,2 28,6 24,0 21,7 26 14 41 22 N 1016,3 20 58 0,0
04.08.2020 12:00:00 19,6 10,3 22,6 24,0 21,7 23 12 36 19 N 1016,4 20 55 0,0
04.08.2020 11:00:00 18,1 10,0 23,4 24,1 21,7 19 11 32 17 N 1016,5 20 58 0,0
04.08.2020 10:00:00 16,5 9,9 20,5 24,2 21,7 21 11 35 19 N 1016,8 20 57 0,0
04.08.2020 09:00:00 15,1 9,9 18,2 24,3 21,7 23 12 34 18 N 1016,7 20 60 0,0
04.08.2020 08:00:00 12,4 10,6 10,7 24,5 21,7 9 5 18 10 N 1016,5 20 60 0,0
04.08.2020 07:00:00 9,7 8,9 7,0 24,4 21,7 6 4 8 5 NNE 1016,3 7 11 0,0
04.08.2020 06:00:00 9,2 8,1 7,5 24,5 21,7 5 3 9 5 N 1016,1 16 0 0,0
04.08.2020 05:00:00 10,0 8,6 7,2 24,5 21,7 4 2 7 4 NNE 1015,5 20 0 0,0
04.08.2020 04:00:00 11,3 9,9 10,1 24,5 21,7 5 3 8 4 NE 1015,3 20 0 0,0
04.08.2020 03:00:00 11,9 9,8 11,7 24,6 21,7 4 2 7 4 ENE 1015,5 20 0 0,0
04.08.2020 02:00:00 12,1 10,2 9,2 24,5 21,7 5 3 7 4 NNE 1015,8 20 0 0,0
04.08.2020 01:00:00 11,0 8,9 8,8 24,6 21,7 0 0 6 4 N 1016,0 20 0 0,0
04.08.2020 00:00:00 12,2 10,3 9,9 24,7 21,7 4 2 7 4 NNE 1015,7 20 0 0,0
03.08.2020 23:00:00 12,3 9,3 10,9 24,6 21,7 5 3 9 5 NE 1015,4 20 0 0,0
03.08.2020 22:00:00 14,0 9,6 13,4 24,7 21,7 6 4 18 10 N 1014,7 20 0 0,0
03.08.2020 21:00:00 15,5 9,6 16,4 24,6 21,7 10 5 40 21 NE 1014,3 20 0 0,0
03.08.2020 20:00:00 16,8 10,6 17,6 24,5 21,7 22 12 36 19 NNE 1014,2 20 0 0,0
03.08.2020 19:00:00 16,9 9,8 17,1 24,8 21,7 22 12 46 25 NW 1013,6 20 0 0,0
03.08.2020 18:00:00 21,2 7,4 24,6 24,8 21,7 18 10 28 15 N 1012,5 20 1 0,0
03.08.2020 17:00:00 22,2 8,7 23,3 25,0 21,7 15 8 27 15 NE 1012,6 20 17 0,0
03.08.2020 16:00:00 20,1 8,7 22,9 24,8 21,7 15 8 40 22 NNE 1013,1 20 18 0,0
03.08.2020 15:00:00 20,7 9,0 24,6 24,9 21,7 25 13 40 22 NNE 1013,4 20 45 0,0
03.08.2020 14:00:00 19,1 11,4 23,1 25,1 21,7 21 11 36 20 NNE 1014,2 20 7 0,0
03.08.2020 13:00:00 18,6 11,2 21,4 25,1 21,6 20 11 31 17 N 1014,1 20 0 0,0
03.08.2020 12:00:00 18,2 12,2 21,8 25,0 21,7 22 12 33 18 NNW 1014,0 20 4 0,0
03.08.2020 11:00:00 18,6 13,0 22,4 25,1 21,6 26 14 35 19 N 1013,5 20 13 0,0
03.08.2020 10:00:00 18,1 13,8 19,0 25,1 21,6 20 11 32 18 N 1013,4 20 7 0,0
03.08.2020 09:00:00 17,3 14,6 17,5 25,2 21,6 10 6 21 12 N 1013,7 20 0 0,0
03.08.2020 08:00:00 16,6 13,3 17,3 25,2 21,6 11 6 19 10 N 1013,5 20 0 0,0
03.08.2020 07:00:00 16,7 14,0 16,9 25,2 21,6 13 7 24 13 NNE 1013,4 20 0 0,0
03.08.2020 06:00:00 16,3 14,5 16,8 25,3 21,6 11 6 19 10 N 1013,2 20 0 0,0
03.08.2020 05:00:00 17,0 14,8 16,9 25,4 21,6 8 5 14 8 N 1013,4 20 0 0,0
03.08.2020 04:00:00 16,9 15,2 17,0 25,5 21,6 9 5 16 9 N 1013,9 20 0 0,0
03.08.2020 03:00:00 17,0 15,5 17,3 25,3 21,6 8 4 24 13 N 1014,2 20 0 0,0
03.08.2020 02:00:00 17,9 14,8 18,5 25,4 21,6 21 11 29 16 N 1014,5 20 0 0,0
03.08.2020 01:00:00 18,5 16,1 18,5 25,3 21,6 11 6 20 11 NNE 1014,8 20 0 0,0
03.08.2020 00:00:00 18,0 16,2 17,1 25,5 21,6 4 2 9 5 ENE 1015,0 20 0 0,0
02.08.2020 23:00:00 18,9 16,1 18,7 25,5 21,6 3 1 12 6 E 1014,8 20 0 0,0
02.08.2020 22:00:00 19,2 16,1 18,2 25,6 21,6 8 5 12 6 NNW 1014,6 20 0 0,0
02.08.2020 21:00:00 21,2 16,2 22,0 25,6 21,5 6 3 15 8 N 1014,0 20 14 0,0
02.08.2020 20:00:00 21,4 15,2 22,5 25,6 21,5 11 6 24 13 NNW 1014,3 20 0 0,0
02.08.2020 19:00:00 21,8 16,1 21,6 25,5 21,5 18 10 30 16 NNW 1013,6 20 0 0,0
02.08.2020 18:00:00 21,9 18,1 21,4 25,4 21,5 9 5 16 9 NNE 1014,0 20 0 0,2
02.08.2020 17:00:00 21,0 18,2 20,0 25,5 21,5 5 3 24 13 ESE 1014,7 20 0 1,0
02.08.2020 16:00:00 23,5 15,8 22,4 25,5 21,5 17 9 35 19 N 1014,8 20 0 0,0
02.08.2020 15:00:00 25,7 15,1 29,4 25,5 21,5 24 13 37 20 N 1014,4 20 11 0,0
02.08.2020 14:00:00 25,3 15,3 29,9 25,7 21,5 26 14 39 21 NNW 1014,5 20 2 0,0
02.08.2020 13:00:00 25,6 16,7 29,2 25,6 21,5 21 12 34 18 NNW 1014,7 20 13 0,0
02.08.2020 12:00:00 24,0 17,3 26,8 25,7 21,5 13 7 28 15 NNW 1015,1 20 0 0,0
02.08.2020 11:00:00 23,3 17,5 26,6 25,8 21,5 18 10 27 14 N 1015,6 20 14 0,0
02.08.2020 10:00:00 22,0 17,6 24,1 25,8 21,5 14 7 23 12 N 1015,5 20 26 0,0
02.08.2020 09:00:00 19,8 17,6 20,5 25,6 21,5 10 5 13 7 N 1015,9 20 11 0,0
02.08.2020 08:00:00 18,6 17,1 18,9 25,8 21,5 8 4 12 6 ENE 1015,8 20 15 0,0
02.08.2020 07:00:00 17,4 16,3 17,0 25,8 21,4 5 3 7 4 N 1015,6 18 13 0,0
02.08.2020 06:00:00 17,5 16,4 16,5 25,9 21,4 0 0 6 4 N 1015,8 18 0 0,0
02.08.2020 05:00:00 18,3 16,8 17,2 25,7 21,4 0 0 7 4 N 1015,8 20 0 0,0
02.08.2020 04:00:00 18,4 16,9 17,9 25,9 21,4 4 2 7 4 ENE 1015,9 20 0 0,0
02.08.2020 03:00:00 18,5 16,8 18,4 25,7 21,4 0 0 6 3 N 1016,1 20 0 0,0
02.08.2020 02:00:00 18,3 17,0 18,3 25,8 21,4 4 2 7 4 NNE 1016,5 20 0 0,0
02.08.2020 01:00:00 19,1 17,1 18,8 25,8 21,4 4 2 10 5 NE 1016,7 20 0 0,2
02.08.2020 00:00:00 20,1 17,9 19,9 25,8 21,4 0 0 14 8 N 1016,4 20 0 0,0
01.08.2020 23:00:00 21,2 17,6 20,6 25,6 21,4 10 5 34 18 NE 1015,9 20 0 0,0

tt = Température de l'air
td = dewpoint
tt 5cm = Température de l'air 5cm
tt -20cm = Température de l'air -20cm
tt -100cm = Température de l'air -100cm
ff = Vitesse du vent
fx = gusts
dd = Direction du vent
ppp = reduced air pressure
vv = visibility
sd = Ensoleillement
rr = Quantités de précipitations

stations d'obs. à proximité